Location: Amberg
(48.0613°N, 10.6820°E)
Time: 05:38:31
(UTC+00:00)

USA 215 - Pass Details

Date: 18 November 2025
Orbit: 1101 x 1106 km, 123.0° (Epoch: 02 December)

Event Time Altitude Azimuth Distance (km) Brightness Sun altitude
Rises 16:01:25 0° 115° (ESE) 3,916 5.8 -4.6°
Reaches altitude 10° 16:03:54 10° 114° (ESE) 2,961 5.1 -5.0°
Maximum altitude 16:10:25 76° 30° (NNE) 1,141 3.3 -6.0°
Drops below altitude 10° 16:16:59 10° 306° (NW) 2,973 6.0 -7.0°
Sets 16:19:28 0° 305° (NW) 3,933 6.7 -7.4°
